Regional Weather Roundup
Issued by NWS

Home | Current Version | Previous Version | Graphics & Text | Print | Product List | Glossary On
Versions: 1 2 3 4 5 6 7 8 9 10 11 12 13 14 15 16 17 18 19 20 21 22 23 24 25 26 27
000
ASUS45 KBOU 271110
RWRCO

WEATHER ROUNDUP FOR COLORADO
NATIONAL WEATHER SERVICE DENVER/BOULDER CO
500 AM MDT TUE SEP 27 2016

NOTE: "FAIR" INDICATES FEW OR NO CLOUDS BELOW 12000 FEET WITH NO
SIGNIFICANT WEATHER AND/OR OBSTRUCTIONS TO VISIBILITY.

COZ001>005-013-030-031-271200-
...NORTHWEST COLORADO...

CITY           SKY/WX    TMP DP  RH WIND       PRES   REMARKS
CRAIG          FAIR      34  30  85 CALM      30.36R
HAYDEN         FAIR      43  30  61 E12       30.36S
MEEKER         FAIR      37  34  89 CALM      30.36S
MOUNT WERNER   NOT AVBL
STEAMBOAT SPGS FAIR      37  32  83 CALM      30.38S
WALDEN           N/A     30  25  80 SE5       30.45S WCI  25
$$

COZ006>008-011-271200-
...WEST CENTRAL VALLEYS...

CITY           SKY/WX    TMP DP  RH WIND       PRES   REMARKS
GRAND JUNCTION FAIR      52  38  58 SE9       30.26R
MONTROSE       FAIR      44  36  73 SE8       30.34R
EAGLE          FAIR      37  30  75 E3        30.42S
RIFLE          FAIR      44  39  82 CALM      30.32S
DELTA          NOT AVBL
NUCLA          FAIR      46  34  61 SE9       30.35S
$$

COZ017>023-064>068-271200-
...SOUTHWEST COLORADO...

CITY           SKY/WX    TMP DP  RH WIND       PRES   REMARKS
DURANGO        FAIR      40  34  79 N5        30.37F
CORTEZ         FAIR      40  35  83 CALM      30.32S
PAGOSA SPRINGS FAIR      37  33  85 CALM      30.42F
TELLURIDE      FAIR      43  36  74 SE6       30.49S
WOLF CREEK PAS FAIR      39  28  65 MISG      30.64S
$$

COZ009-010-012-014-032>034-037-058>063-271200-
...CENTRAL COLORADO...

CITY           SKY/WX    TMP DP  RH WIND       PRES   REMARKS
ASPEN          FAIR      40  31  70 SW6       30.42S
BUENA VISTA    FAIR      37  25  63 NW5       30.44S
COPPER MTN     FAIR      45  23  42 SW3       30.64S
BERTHOUD PASS  FAIR      36  23  60 NW17      30.65S
COTTONWOOD PAS FAIR      50  23  34 CALM      30.51S
GUNNISON       FAIR      30  27  86 CALM      30.46R
KREMMLING      FAIR      32  23  69 CALM      30.46R
LEADVILLE      FAIR      28  21  75 CALM      30.52S
SALIDA         FAIR      42  26  53 NW5       30.50S
SUNLIGHT       FAIR      48  28  46 CALM      30.59S
WILKERSON PASS FAIR      39  21  48 W7        30.60S
$$

COZ069>075-271200-
...SAN LUIS VALLEY/SANGRE DE CRISTO MOUNTAINS...

CITY           SKY/WX    TMP DP  RH WIND       PRES   REMARKS
ALAMOSA        FAIR      32  26  78 S3        30.41F
LA VETA PASS   FAIR      41  28  60 MISG      30.52S
SAGUACHE       NOT AVBL
$$

COZ035-036-038>040-271200-
...NORTHERN COLORADO FRONT RANGE...

CITY           SKY/WX    TMP DP  RH WIND       PRES   REMARKS
DENVER INTL AP FAIR      47  32  56 W6        30.26S
DMNS CITY PARK   N/A     49  34  56 SE5       30.26S
AURORA         CLEAR     46  32  57 S8        30.27F
FRONT RANGE AP NOT AVBL
ERIE MUNI ARPT FAIR      41  34  76 CALM      30.25F
BOULDER MUN AP FAIR      50  34  53 SW3       30.25S
CENTENNIAL     FAIR      47  29  49 S5        30.28F
BROOMFIELD     FAIR      54  32  43 CALM      30.27F
FORT COLLINS   FAIR      46  39  76 CALM      30.25S
LONGMONT       FAIR      49  36  60 W3        30.27S
$$

COZ041-046-047-076>085-087-088-271200-
...PIKES PEAK/PALMER DIVIDE AND SOUTHERN FOOTHILLS...

CITY           SKY/WX    TMP DP  RH WIND       PRES   REMARKS
COLO. SPRINGS  FAIR      44  30  57 N7        30.31F
A. F. ACADEMY  FAIR      39  29  67 N10       30.31F
SCHRIEVER AFB  NOT AVBL
ELLICOTT       NOT AVBL
FALCON         FAIR      44  29  57 W5        30.34S
FORT CARSON    FAIR      46  31  54 NW8       30.28S
LIMON          FAIR      36  27  69 N5        30.26F
MONUMENT HILL  FAIR      41  28  60 SW7       30.35F
TRINIDAD       FAIR      48  33  56 W14       30.30S
$$

COZ042>045-048>051-090-091-271200-
...NORTHEAST COLORADO...

CITY           SKY/WX    TMP DP  RH WIND       PRES   REMARKS
GREELEY ARPT   FAIR      45  37  76 NW10      30.24F
AKRON          FAIR      47  35  63 W9        30.21F
BURLINGTON     FAIR      45  38  76 W8        30.20F
WRAY           FAIR      41  36  81 W6        30.18F
STERLING       FAIR      37  34  87 SW3       30.20S
HOLYOKE        FAIR      45  37  76 NW5       30.18F
FORT MORGAN    FAIR      45  34  66 CALM      30.22F
$$

COZ086-089-092>099-271200-
...SOUTHEAST COLORADO...

CITY           SKY/WX    TMP DP  RH WIND       PRES   REMARKS
PUEBLO         FAIR      45  30  55 W8        30.24F
LA JUNTA       FAIR      47  34  60 W12       30.22S
LAMAR          FAIR      42  32  67 SW8       30.19S
SPRINGFIELD    NOT AVBL
$$




USA.gov is the U.S. government's official web portal to all federal, state and local government web resources and services.